Погода в Иртышске

Погода в Иртышске : погода сейчас, прогноз погоды и архив. Всё, что Вы хотите узнать о погоде в Иртышске!

Хотите узнать прогноз погоды в Иртышске? Тогда Вам сюда: Погода в Иртышске

Поиск расширенной информации на нашем сайте:

Другие новости

Новости СМИ2

Главная страница сайта

Новости сайта

02.10.2013

Напоминаем, что на нашем новом сайте вы можете получить высокодетализированные прогнозы погоды по пунктам России, СНГ и мира (включающие важные для авиации метеовеличины, такие как направление и скорость ветра, видимость, явления погоды, количество и форма облачности, нижняя и верхняя граница облачности), а также ознакомиться с разнообразными материалами по авиационной метеорологии и подборкой полезных ссылок на эту тему.

Сайт Метеоцентр.Азия посвящён разработке технологий оптимизации авиаметеорологического обслуживания, включая проектирование и перспективное создание нескольких автоматизированных авиаметеорологических систем:
- система выпуска высокодетальных прогностических карт явлений погоды для нижнего воздушного пространства по России и ближнему зарубежью;
- система верификации прогнозов TAF (выпускаемых синоптиками официальных АМСГ РФ и ближнего зарубежья) и AUTOTAF (выпускаемых сайтом Метеоцентр.Азия) - выявление ошибок, онлайн-сопоставление с фактической погодой METAR, автоматическое внесение коррективов в прогнозы при резком отклонении фактической погоды от прогноза, подсчёт оправдываемости прогнозов по элементам и в целом;
- система обработки, анализа и отображения авиаметеорологической информации для применения провайдерами метеорологической информации.

Рекомендуем: Описание автозапчасти для mercedes у нас на сайте.

Погода в Иртышске - сегодня

Время (UTC), дата Ветер
(°,м/с) 
Видим.   Явления Облачность Т
(°С)
Тd
(°С)
f(%) Тe
(°С)
Pmin
(гПа)
dP
(гПа)
Po
(мм)
O2
(г/м3)
Тmin Tmax R s Состояние
почвы
06 20.06.17 220 (ЮЗ) 10 км    8/6 600 м средняя 
[Sc|Ac trans]
+27.6 +6.4 26 +28  1005.3  -0.2  746  272  +18.7         
09 20.06.17 070 (В) 10 км    8/4 1000 м кучево-дожд., верхняя 
[Cb calv|Ci fib]
+29 +9.9 30 +30  1003.7  -1.5  745  270           
12 20.06.17 120 (ЮВ) 10 км    8/3 1000 м кучево-дожд., верхняя 
[Cb calv|Ci fib]
+28.2 +11.2 35 +31  1002.3  -1.5  744  270           
15 20.06.17 210 (ЮЗ) 10 км    8/4 1000 м кучево-дожд., верхняя 
[Cb calv|Ci fib]
+26.7 +8.1 31 +27  1001.8  -0.6  743  272    +29.2       
18 20.06.17 320 (СЗ) н/о    6/6 1000 м кучево-дожд. 
[Cb calv]
+20.5 +9.5 49 +21  1003.7  1.7  745  277    +29.2       
21 20.06.17 тихо ()   н/о  гроза, ливневой дождь  8/8 600 м кучево-дожд. 
[Cb cap]
+17.5 +15.6 89 +27  1002.9  -0.9  744  278           
00 21.06.17 230 (ЮЗ) 10 км  {гроза, ливн. осадки}  4/0 средняя 
[Ac trans]
+17.3 +14 81 +25  1003  0.2  744  279           
03 21.06.17 020 (С) 34  10 км    1/0 
+11.8   1003.4  0.6  745        0.6     
06 21.06.17 260 (З) 10 км    3/3 1000 м 
[Cu hum]
+27.9 +7.2 27 +28  1002.8  -0.5  744  271  +17.2    0.6     
09 21.06.17 270 (З) 10 км    6/6 1000 м 
[Cu hum]
+29.4 +5.5 22 +29  1001.9  -0.9  744  270           
12 21.06.17 270 (З) 10 км    4/4 1000 м 
[Cu hum]
+30.4 +7.3 24 +30  1001.2  -0.6  743  268           
15 21.06.17 тихо ()   10 км    4/0 средняя 
[Ac trans]
+27.4 +8.1 30 +27  1001.5  0.2  743  271    +30.6       
18 21.06.17 тихо ()   н/о    4/4 1000 м кучево-дожд. 
[Cb calv]
+23.1 +8.8 40 +23  1001.6  743  275    +30.6       
21 21.06.17 210 (ЮЗ) н/о    4/4 1000 м кучево-дожд. 
[Cb calv]
+19.1 +9.5 54 +21  1001.9  0.1  743  278           
00 22.06.17 350 (С) 10 км    6/6 1000 м кучево-дожд. 
[Cb calv]
+19 +10.1 56 +21  1003.1  1.1  744  279           
03 22.06.17 020 (С) 34  0200 м    4/4 2000 м 
[Cu hum]
+10.9   1003.8  0.9  745             
06 22.06.17 270 (З) 10 км    3/3 1000 м 
[Cu hum]
+25.1 +8.4 35 +25  1004.1  0.3  745  274  +18.9         
09 22.06.17 280 (З) 10 км    3/3 1000 м 
[Cu hum]
+26.2 +7.2 30 +26  1003.6  -0.4  745  273           
12 22.06.17 310 (СЗ) 10 км    3/3 1000 м 
[Cu hum]
+27.4 +6.4 26 +27  1003.8  0.3  745  272           
15 22.06.17 310 (СЗ) 10 км    ясно 
+24.4 +12 46 +28  1005.3  1.3  746  274    +27.5       
18 22.06.17 тихо ()   н/о    ясно 
+18.7 +13.6 72 +25  1006.8  1.4  747  279    +27.5       
21 22.06.17 тихо ()   н/о    ясно 
+13.8 +11.2 84 +17  1007.2  0.1  747  284           
00 23.06.17 тихо ()   10 км    ясно 
+13.9 +12.6 92 +19  1008.1  0.9  748  284           
03 23.06.17 120 (ЮВ) 10 км    ясно 
+22.9 +13.3 55 +29  1008.2  0.4  748  275           
06 23.06.17 100 (В) 10 км    3/0 верхняя 
[Ci fib]
+26.5 +10.1 36 +28  1007.1  -0.9  747  273  +13.7         
Время (UTC), дата Ветер
(°,м/с) 
Видим.   Явления Облачность Т
(°С)
Тd
(°С)
f(%) Тe
(°С)
Pmin
(гПа)
dP
(гПа)
Po
(мм)
O2
(г/м3)
Тmin Tmax R s Состояние
почвы

Для получения пояснительной информации подведите курсор к названию столбца.

ПОГОДА в Иртышске - архив

Всё, что Вы хотите узнать о погоде в Иртышске - удобно и подробно!

Выберите нужную дату (начиная с 1 января 2015* года) и нажмите кнопку "Найти".
Будут отображены архивные сводки погоды по пункту Иртышск, начиная с указанной даты.


Отображать данные в формате CSV (для использования в таблицах Excel)


Внимание! Наш архив погоды предназначен исключительно для личного некоммерческого использования в познавательных целях. Если Вам необходимы официальные справки о состоянии погоды (для производственных, юридических, коммерческих и т.п. целей), обращайтесь в органы Росгидромета.

*Примечание: данная дата относится к архиву по метеостанциям СССР (Россия, СНГ, Балтия).
Архив по метеостанциям Зарубежной Европы и Азии (кроме Китая) хранится 10 дней, по другим регионам земного шара (Китай, Африка, Америка, Австралия, Океания) - 1 день.

Иртышск - район местоположения метеостанции


Название, широта, долгота, высота метеостанции:
Иртышск 53.3°ш. 75.4°д. 94 м над ур. моря [Казахстан]

Дополнительная информация

В oтличие oт бoльшинства пoгoдных сайтoв мы публикуем пoдрoбную метеoинфoрмацию в детальнoм прoфессиoнальнoм фoрмате.

Характеристики температуры и влажнoсти вoздуха измеряются на высoте 2 м в тени вдали oт зданий и деревьев.
Скoрoсть ветра измеряется на высoте 10 м (на урoвне рoста челoвека скoрoсть ветра ниже в 1.5-2 раза). Если метеoстанция нахoдится в гoрoде или в лесу, тo скoрoсть ветра занижена на 2-4 м/с пo сравнению с oткрытым местoм. Скoрoсть ветра над акватoриями крупных рек и oзёр, а также на вершинах хoлмoв на 2-5 м/с выше, чем в oбычных услoвиях.
Атмoсфернoе давление в разных тoчках местнoсти мoжет значительнo oтличаться oт давления на метеoстанции, в зависимoсти oт услoвий рельефа (при пoдъёме на 10 м давление пoнижается примернo на 1 мм рт.ст.).